Meteopurmerend
purmerend
Purmerend - Baaienwijk



My webcam  My webcam


waarschuwing voor Onweer Meer informatie blitzortung!


Regen radar Meer informatie rain snow radar


Bezoek onze andere website:

CandyAppleRed WebdesignWebdesign Purmerend Candy Apple Red

MeteopurmerendBlog

Template documentation
and downloads



Onweer van: 26-07-2021 15:00 tot: 21:00 waarschuwing voor: Onweer niveau: Geel info button
Enkele onweersbuien, lokaal met hagel en veel neerslag in korte tijd.Kans op blikseminslag, hagel en veel neerslag in korte tijd.Verkeer en buitenactiviteiten kunnen hinder ondervinden.Mijd open water en open gebied, schuil niet onder bomen.Volg weerberichten en waarschuwingen.

15 daagse weersverwachting Leiden (NL)

  • Overzicht
  • Per uur
  • 15 dagen
  • Extra
  • Vergelijk
  • Kaarten
  • Dagkaart
  • Meer »
  • Info
  • Statistieken
  • Directe link
    Temp 6h Neerslag Wind  
 05:57     21:41    Daglengte: 15:44 Vandaag
20:00
18°
10.1 mm
3
 05:58     21:40    Daglengte: 15:42 Morgen
02:00
16°
1.6 mm
3
08:00
16°
 
3
14:00
20°
 
4
20:00
19°
13.9 mm
3
warningclass
 06:00     21:38    Daglengte: 15:38 Woensdag 28 Jul
02:00
17°
 
4
08:00
16°
 
5
14:00
18°
11.5 mm
9
20:00
17°
18.3 mm
9
 06:01     21:37    Daglengte: 15:36 Donderdag 29 Jul
02:00
15°
15.9 mm
8
08:00
16°
26.1 mm
8
14:00
19°
 
8
Locatie info
Region: Zuid-Holland
Latitude: 52.1536°N
Longitude: 4.4938°E
6 masl
Postcode: 2311 NX
Temp/Neerslag /Baro Onweer/Dauwpunt
    Temp Baro 1h Neerslag Dauwpunt Wind UV Bewolking  
 05:57     21:41    Daglengte: 15:44 Vandaag
17:00
19°
1008.8 hPa 5.2 mm
48%
17.8°
4
Windvlaag: 4.2 m/s
82%
18:00
19°
1008.9 hPa 1.9 mm
82%
17.5°
4
Windvlaag: 4 m/s
80% warningclass
19:00
18°
1009.1 hPa 1.6 mm
82%
17.2°
3
Windvlaag: 4.1 m/s
84% warningclass
20:00
18°
1009.1 hPa 1.5 mm
82%
16.9°
3
Windvlaag: 3.3 m/s
65%
21:00
18°
1009.5 hPa 1.6 mm
80%
16.4°
4
Windvlaag: 0.6 m/s
83%
22:00
17°
1010.1 hPa
27%
16.3°
3
Windvlaag: 1.3 m/s
67%
23:00
17°
1010.4 hPa
15%
16.0°
3
Windvlaag: 1.8 m/s
61%
 05:58     21:40    Daglengte: 15:42 Morgen
00:00
17°
1010.6 hPa
14%
15.7°
4
Windvlaag: 3.1 m/s
19%
01:00
16°
1010.3 hPa
14%
15.5°
3
Windvlaag: 2.8 m/s
59%
02:00
16°
1010.2 hPa
14%
15.5°
3
Windvlaag: 3.4 m/s
53%
03:00
16°
1010.2 hPa
14%
15.3°
2
Windvlaag: 3.9 m/s
37%
04:00
16°
1010.0 hPa
28%
15.6°
2
Windvlaag: 4.4 m/s
54%
05:00
16°
1009.8 hPa
23%
15.8°
2
Windvlaag: 5 m/s
48%
06:00
16°
1009.7 hPa
14%
15.6°
3
Windvlaag: 6.5 m/s
17%
07:00
16°
1009.8 hPa
14%
15.4°
3
Windvlaag: 6.1 m/s
76%
08:00
16°
1010.0 hPa
14%
15.3°
3
Windvlaag: 6.9 m/s
55%
09:00
17°
1010.1 hPa
14%
15.8°
4
Windvlaag: 6.9 m/s
72%
10:00
18°
1010.2 hPa
14%
16.2°
4
Windvlaag: 7.9 m/s
72%
11:00
19°
1010.2 hPa
15%
15.9°
4
Windvlaag: 8 m/s
76%
12:00
20°
1010.0 hPa
22%
16.9°
4
Windvlaag: 6.7 m/s
80%
13:00
20°
1009.8 hPa
27%
17.2°
4
Windvlaag: 7.2 m/s
58%
14:00
20°
1009.5 hPa
77%
17.3°
4
Windvlaag: 7.2 m/s
84%
15:00
20°
1009.2 hPa
81%
17.5°
4
Windvlaag: 6.6 m/s
79%
16:00
20°
1009.2 hPa 2.9 mm
79%
17.4°
4
Windvlaag: 7.4 m/s
73%
17:00
20°
1009.0 hPa 2.9 mm
81%
16.9°
3
Windvlaag: 6.5 m/s
86%
18:00
19°
1008.9 hPa 2.4 mm
82%
16.5°
3
Windvlaag: 5.6 m/s
67% warningclass
19:00
19°
1008.7 hPa 2.4 mm
82%
16.8°
2
Windvlaag: 5 m/s
83%
20:00
19°
1008.5 hPa 3.3 mm
82%
16.2°
3
Windvlaag: 5.4 m/s
84% warningclass
21:00
18°
1008.5 hPa
82%
15.6°
4
Windvlaag: 5.5 m/s
54%
22:00
17°
1008.7 hPa
82%
14.4°
4
Windvlaag: 5.9 m/s
54%
23:00
17°
1008.8 hPa
82%
14.9°
4
Windvlaag: 6.1 m/s
56%
 06:00     21:38    Daglengte: 15:38 Woensdag 28 Jul
00:00
17°
1008.6 hPa
41%
15.2°
3
Windvlaag: 6.7 m/s
32%
01:00
17°
1008.4 hPa
36%
15.3°
4
Windvlaag: 7.3 m/s
71%
02:00
17°
1008.0 hPa
34%
15.1°
4
Windvlaag: 7.6 m/s
79%
03:00
17°
1007.6 hPa
36%
14.6°
4
Windvlaag: 7.5 m/s
64%
04:00
16°
1007.1 hPa
36%
14.8°
4
Windvlaag: 7.6 m/s
65%
05:00
16°
1007.0 hPa
36%
14.8°
4
Windvlaag: 9.5 m/s
59%
06:00
16°
1006.8 hPa
28%
14.5°
5
Windvlaag: 9.8 m/s
66%
07:00
16°
1006.8 hPa
22%
14.2°
5
Windvlaag: 10.8 m/s
35%
08:00
16°
1006.8 hPa
81%
14.1°
5
Windvlaag: 11.2 m/s
58%
09:00
16°
1006.8 hPa
82%
14.3°
5
Windvlaag: 10.9 m/s
60%
10:00
17°
1006.8 hPa
82%
14.3°
6
Windvlaag: 11.3 m/s
68%
11:00
18°
1006.6 hPa 3.7 mm
100%
14.1°
8
Windvlaag: 12.1 m/s
80%
12:00
18°
1006.6 hPa 2.5 mm
100%
14.1°
8
Windvlaag: 11.9 m/s
69%
13:00
18°
1006.8 hPa 2.8 mm
100%
14.6°
8
Windvlaag: 9.1 m/s
67%
14:00
18°
1007.0 hPa 2.5 mm
100%
15.3°
9
Windvlaag: 8.8 m/s
93%
15:00
18°
1007.3 hPa 2.4 mm
100%
14.7°
9
Windvlaag: 8.8 m/s
83%
16:00
19°
1007.5 hPa 3.6 mm
100%
14.4°
9
Windvlaag: 8.9 m/s
77%
17:00
19°
1007.5 hPa 3.6 mm
100%
13.7°
9
Windvlaag: 9.9 m/s
38%
18:00
18°
1007.5 hPa 2.5 mm
100%
13.3°
10
Windvlaag: 11.1 m/s
45%
19:00
18°
1007.2 hPa 2.5 mm
100%
11.4°
10
Windvlaag: 12.4 m/s
61%
20:00
17°
1007.0 hPa 3.8 mm
100%
11.3°
9
Windvlaag: 12 m/s
18%
21:00
17°
1007.1 hPa 3.9 mm
100%
11.5°
8
Windvlaag: 11.8 m/s
32%
22:00
17°
1007.2 hPa 2.3 mm
100%
11.5°
8
Windvlaag: 11.4 m/s
58%
23:00
16°
1006.9 hPa 3.6 mm
100%
11.1°
7
Windvlaag: 10.5 m/s
36%
 06:01     21:37    Daglengte: 15:36 Donderdag 29 Jul
00:00
16°
1006.5 hPa 2.3 mm
99%
11.5°
7
Windvlaag: 11.2 m/s
43%
01:00
16°
1006.2 hPa
99%
12.2°
8
Windvlaag: 11.6 m/s
58%
02:00
15°
1005.7 hPa 3.8 mm
100%
12.7°
8
Windvlaag: 11.9 m/s
57%
03:00
15°
1005.4 hPa 2.6 mm
100%
12.7°
8
Windvlaag: 12.1 m/s
86%
04:00
15°
1005.3 hPa 2.7 mm
100%
12.5°
8
Windvlaag: 11 m/s
83%
05:00
15°
1005.2 hPa 4.6 mm
92%
11.9°
8
Windvlaag: 9.8 m/s
73%
06:00
15°
1005.2 hPa 4.6 mm
30%
12.1°
8
Windvlaag: 9.6 m/s
39%
07:00
15°
1005.5 hPa 5.9 mm
35%
11.5°
8
Windvlaag: 9.7 m/s
69%
08:00
16°
1005.8 hPa 5.7 mm
44%
12.0°
8
Windvlaag: 7.1 m/s
60%
09:00
16°
1008.0 hPa
41%
12.5°
7
Windvlaag: 14.2 m/s
16%
10:00
17°
1008.2 hPa
37%
11.6°
7
Windvlaag: 15.5 m/s
10%
11:00
17°
1008.6 hPa
34%
12.5°
7
Windvlaag: 16.1 m/s
21%
12:00
18°
1008.9 hPa
34%
13.6°
7
Windvlaag: 16.1 m/s
20%
13:00
18°
1009.2 hPa
35%
15.7°
7
Windvlaag: 17.2 m/s
20% warningclass
14:00
19°
1009.2 hPa
34%
15.4°
8
Windvlaag: 15.6 m/s
16%
Temp/Neerslag /Baro Onweer/Dauwpunt
    Temp Baro Neerslag Dauwpunt Wind Bewolking  
 05:57     21:41    Daglengte: 15:44 Vandaag
17:00
19°
1008.8 hPa 5.2 mm 17.8°
4
82%
20:00
18°
1009.1 hPa 5.0 mm 16.9°
3
65%
23:00
17°
1010.4 hPa 1.6 mm 16.0°
3
61%
 05:58     21:40    Daglengte: 15:42 Morgen
02:00
16°
1010.2 hPa   15.5°
3
53%
05:00
16°
1009.8 hPa   15.8°
2
48%
08:00
16°
1010.0 hPa   15.3°
3
55%
11:00
19°
1010.2 hPa   15.9°
4
76%
14:00
20°
1009.5 hPa   17.3°
4
84%
17:00
20°
1009.0 hPa 5.8 mm 16.9°
3
86%
20:00
19°
1008.5 hPa 8.1 mm 16.2°
3
84% warningclass
23:00
17°
1008.8 hPa   14.9°
4
56%
 06:00     21:38    Daglengte: 15:38 Woensdag 28 Jul
02:00
17°
1008.0 hPa   15.1°
4
79%
05:00
16°
1007.0 hPa   14.8°
4
59%
08:00
16°
1006.8 hPa   14.1°
5
58%
11:00
18°
1006.6 hPa 3.7 mm 14.1°
8
80%
14:00
18°
1007.0 hPa 7.8 mm 15.3°
9
93%
17:00
19°
1007.5 hPa 9.6 mm 13.7°
9
38%
20:00
17°
1007.0 hPa 8.8 mm 11.3°
9
18%
23:00
16°
1006.9 hPa 9.9 mm 11.1°
7
36%
 06:01     21:37    Daglengte: 15:36 Donderdag 29 Jul
02:00
15°
1005.7 hPa 6.0 mm 12.7°
8
57%
05:00
15°
1005.2 hPa 9.9 mm 11.9°
8
73%
08:00
16°
1005.8 hPa 16.2 mm 12.0°
8
60%
11:00
17°
1008.6 hPa   12.5°
7
21%
14:00
19°
1009.2 hPa   15.4°
8
16%
17:00
19°
1009.7 hPa 17.7 mm 13.2°
10
0%
20:00
18°
1009.5 hPa 18.1 mm 13.1°
9
0%
23:00
17°
1009.7 hPa 18.5 mm 12.6°
8
1%
 06:03     21:35    Daglengte: 15:32 Vrijdag 30 Jul
02:00
17°
1009.9 hPa 18.7 mm 12.8°
6
0%
05:00
16°
1009.8 hPa 18.8 mm 11.6°
5
0%
08:00
17°
1010.2 hPa 18.8 mm 11.8°
5
0%
11:00
18°
1010.4 hPa 18.8 mm 12.0°
6
1%
14:00
20°
1009.9 hPa 18.8 mm 12.8°
5
1%
17:00
20°
1009.1 hPa 18.8 mm 13.4°
4
1%
20:00
19°
1007.7 hPa 18.8 mm 12.7°
2
1%
23:00
16°
1007.6 hPa 22.0 mm 14.6°
2
1%
 06:04     21:33    Daglengte: 15:29 Zaterdag 31 Jul
02:00
16°
1006.9 hPa 22.0 mm 14.6°
3
1%
05:00
15°
1005.6 hPa 22.1 mm 11.5°
3
0%
08:00
14°
1004.8 hPa 22.1 mm 11.6°
5
0%
11:00
16°
1003.2 hPa 22.6 mm 12.9°
7
1%
14:00
15°
1000.9 hPa 25.3 mm 13.3°
6
1%
17:00
17°
1002.9 hPa 26.8 mm 14.4°
7
1%
20:00
17°
1005.8 hPa 27.0 mm 12.4°
5
0%
23:00
15°
1007.1 hPa 27.0 mm 12.5°
4
0%
 06:06     21:32    Daglengte: 15:26 Zondag 01 Aug
02:00
15°
1007.0 hPa 27.0 mm 12.3°
2
0%
05:00
15°
1006.4 hPa 27.1 mm 12.2°
2
1%
08:00
15°
1006.4 hPa 28.7 mm 13.1°
2
1%
11:00
15°
1006.8 hPa 30.5 mm 13.2°
2
1%
14:00
17°
1007.6 hPa 33.0 mm 13.3°
5
1%
17:00
17°
1009.0 hPa 34.3 mm 11.5°
6
1%
20:00
16°
1010.2 hPa 34.6 mm 10.3°
5
1%
23:00
15°
1011.9 hPa 34.6 mm 9.1°
4
0%
 06:07     21:30    Daglengte: 15:23 Maandag 02 Aug
02:00
14°
1012.9 hPa 34.7 mm 9.1°
4
0%
05:00
14°
1013.3 hPa 34.8 mm 8.9°
4
0%
08:00
15°
1014.2 hPa 35.3 mm 10.6°
5
1%
11:00
17°
1015.7 hPa 35.6 mm 8.8°
5
0%
14:00
18°
1016.0 hPa 71.1 mm 9.9°
4
0%
20:00
17°
1015.4 hPa 71.2 mm 9.7°
3
1%
 06:09     21:28    Daglengte: 15:19 Dinsdag 03 Aug
02:00
14°
1015.2 hPa 71.2 mm 9.9°
3
0%
08:00
16°
1014.6 hPa 71.4 mm 11.1°
4
1%
14:00
20°
1014.8 hPa 71.6 mm 12.7°
7
0%
20:00
19°
1013.1 hPa 71.7 mm 13.5°
7
1%
 06:11     21:27    Daglengte: 15:16 Woensdag 04 Aug
02:00
17°
1011.5 hPa 71.7 mm 13.3°
7
1%
08:00
17°
1009.8 hPa 71.7 mm 13.8°
7
1%
14:00
18°
1009.0 hPa 73.1 mm 15.1°
9
1%
20:00
18°
1007.8 hPa 76.3 mm 15.0°
9
1%
 06:12     21:25    Daglengte: 15:13 Donderdag 05 Aug
02:00
17°
1008.0 hPa 79.2 mm 12.6°
5
0%
08:00
16°
1007.1 hPa 80.0 mm 13.1°
6
1%
14:00
19°
1009.8 hPa 1.2 mm 13.1°
4
72%
20:00
18°
1008.5 hPa 1.2 mm 13.1°
2
69%
 06:14     21:23    Daglengte: 15:09 Vrijdag 06 Aug
02:00
15°
1007.8 hPa 1.1 mm 12.5°
2
59%
08:00
15°
1007.3 hPa 0.4 mm 12.5°
2
55%
14:00
19°
1007.8 hPa 1.6 mm 12.9°
4
60%
20:00
17°
1007.1 hPa 1.5 mm 12.9°
2
54%
 06:15     21:21    Daglengte: 15:06 Zaterdag 07 Aug
02:00
15°
1007.2 hPa 0.9 mm 12.3°
2
53%
08:00
15°
1007.2 hPa 0.7 mm 12.4°
3
58%
14:00
19°
1008.0 hPa 1.5 mm 13.2°
5
72%
20:00
17°
1008.6 hPa 1.5 mm 12.6°
4
60%
 06:17     21:19    Daglengte: 15:02 Zondag 08 Aug
02:00
15°
1009.4 hPa 0.8 mm 11.9°
3
61%
08:00
15°
1009.2 hPa 1.7 mm 12.3°
4
69%
14:00
18°
1010.5 hPa 2.1 mm 13.0°
5
70%
20:00
17°
1011.1 hPa 0.4 mm 12.5°
4
64%
 06:18     21:17    Daglengte: 14:59 Maandag 09 Aug
02:00
15°
1011.9 hPa 0.6 mm 11.9°
3
70%
08:00
15°
1012.2 hPa 0.3 mm 12.1°
4
71%
14:00
18°
1013.6 hPa 1.3 mm 12.7°
5
64%
20:00
17°
1014.0 hPa 0.5 mm 12.1°
3
64%
 06:20     21:15    Daglengte: 14:55 Dinsdag 10 Aug
02:00
15°
1014.7 hPa 0.5 mm 11.6°
2
52%
08:00
15°
1014.8 hPa 0.8 mm 12.1°
2
50%
14:00
19°
1016.0 hPa 0.7 mm 12.9°
5
52%
  CAPE Lifted Index Hail Supercell Tornado SRH 3km CL BTM PRES CL TOP PRES Swiss DWD icon SMHI TS
 05:57     21:41    Daglengte: 15:44 Vandaag
17:00 364 J/kg -1.5 K 0 % 0 % 0 % 0 m²/s² 0 0 -0.03 95
18:00 397 J/kg -1.7 K 0 % 0 % 0 % 0 m²/s² 0 0 -0.29 95
19:00 345 J/kg -1.5 K 0 % 0 % 0 % 0 m²/s² 0 0 0 95
20:00 216 J/kg -1.4 K 0 % 0 % 0 % 0 m²/s² 0 0 0.1 80
21:00 42 J/kg -0.5 K 0 % 0 % 0 % 0 m²/s² 0 0 0.97 3
22:00 29 J/kg -0.5 K 0 % 0 % 0 % 0 m²/s² 0 0 0.19 3
23:00 7 J/kg 0.3 K 0 % 0 % 0 % 0 m²/s² 0 0 0.9 3
 05:58     21:40    Daglengte: 15:42 Morgen
00:00 13 J/kg 0.7 K 0 % 0 % 0 % 0 m²/s² 0 0 1.63 3
01:00 5 J/kg 0.8 K 0 % 0 % 0 % 0 m²/s² 0 0 2.3 3
02:00 10 J/kg 0.3 K 0 % 0 % 0 % 0 m²/s² 0 0 2.04 3
03:00 18 J/kg -0.4 K 0 % 0 % 0 % 0 m²/s² 0 0 1.85 3
04:00 0 J/kg -0.9 K 0 % 0 % 0 % 0 m²/s² 0 0 1.29 3
05:00 0 J/kg -0.5 K 0 % 0 % 0 % 0 m²/s² 0 0 2.2 3
06:00 0 J/kg -0.7 K 0 % 0 % 0 % 0 m²/s² 0 0 2 2
07:00 0 J/kg -0.5 K 0 % 0 % 0 % 0 m²/s² 0 0 2.05 3
08:00 0 J/kg -1.1 K 0 % 0 % 0 % 0 m²/s² 0 0 1.15 3
09:00 153 J/kg -2.5 K 0 % 0 % 0 % 0 m²/s² 0 0 -0.04 3
10:00 389 J/kg -2.3 K 0 % 0 % 0 % 0 m²/s² 0 0 -1.19 3
11:00 2 J/kg 2.0 K 0 % 0 % 0 % 0 m²/s² 0 0 2.21 3
12:00 6 J/kg 1.3 K 0 % 0 % 0 % 0 m²/s² 0 0 1.9 3
13:00 39 J/kg 0.2 K 0 % 0 % 0 % 0 m²/s² 0 0 0.89 3
14:00 290 J/kg -1.1 K 0 % 0 % 0 % 0 m²/s² 0 0 -0.35 3
15:00 189 J/kg -0.3 K 0 % 0 % 0 % 0 m²/s² 0 0 0.45 61
16:00 89 J/kg 0.0 K 0 % 0 % 0 % 0 m²/s² 0 0 0.75 3
17:00 87 J/kg -1.1 K 0 % 0 % 0 % 0 m²/s² 0 0 -0.26 80
18:00 46 J/kg 0.1 K 0 % 0 % 0 % 0 m²/s² 0 0 0.76 95
19:00 0 J/kg 0.5 K 0 % 0 % 0 % 0 m²/s² 0 0 1.25 3
20:00 366 J/kg -1.5 K 0 % 0 % 0 % 0 m²/s² 0 0 -0.3 95
21:00 436 J/kg -1.6 K 0 % 0 % 0 % 0 m²/s² 0 0 -0.04 80
22:00 573 J/kg -2.2 K 0 % 0 % 0 % 0 m²/s² 0 0 -1.42 80
23:00 562 J/kg -2.3 K 0 % 0 % 0 % 0 m²/s² 0 0 -1.79 3
 06:00     21:38    Daglengte: 15:38 Woensdag 28 Jul
00:00 420 J/kg -1.8 K 0 % 0 % 0 % 0 m²/s² 0 0 -1.29 3
01:00 465 J/kg -2.1 K 0 % 0 % 0 % 0 m²/s² 0 0 -1.5 3
02:00 357 J/kg -1.8 K 0 % 0 % 0 % 0 m²/s² 0 0 -0.39 3
03:00 142 J/kg -0.5 K 0 % 0 % 0 % 0 m²/s² 0 0 1.18 3
04:00 91 J/kg 0.0 K 0 % 0 % 0 % 0 m²/s² 0 0 1.44 3
05:00 87 J/kg 0.4 K 0 % 0 % 0 % 0 m²/s² 0 0 1.42 3
06:00 30 J/kg 1.0 K 0 % 0 % 0 % 0 m²/s² 0 0 2.5 3
07:00 5 J/kg 1.9 K 0 % 0 % 0 % 0 m²/s² 0 0 3.64 2
08:00 4 J/kg 2.8 K 0 % 0 % 0 % 0 m²/s² 0 0 4.99 3
09:00 10 J/kg 2.3 K 0 % 0 % 0 % 0 m²/s² 0 0 4.22 80
10:00 38 J/kg 1.6 K 0 % 0 % 0 % 0 m²/s² 0 0 4.78 80
11:00 83 J/kg 1.0 K 0 % 0 % 0 % 0 m²/s² 0 0 3.34 80
12:00 117 J/kg 0.6 K 0 % 0 % 0 % 0 m²/s² 0 0 2.58 80
13:00 213 J/kg 0.2 K 0 % 0 % 0 % 0 m²/s² 0 0 2.24 80
14:00 282 J/kg -0.3 K 0 % 0 % 0 % 0 m²/s² 0 0 2.01 80
15:00 315 J/kg -0.6 K 0 % 0 % 0 % 0 m²/s² 0 0 1.83 80
16:00 329 J/kg -0.9 K 0 % 0 % 0 % 0 m²/s² 0 0 1.62 80
17:00 248 J/kg -0.7 K 0 % 0 % 0 % 0 m²/s² 0 0 2.12 3
18:00 248 J/kg -0.7 K 0 % 0 % 0 % 0 m²/s² 0 0 2.6 80
19:00 44 J/kg 1.2 K 0 % 0 % 0 % 0 m²/s² 0 0 5.07 80
20:00 77 J/kg 1.2 K 0 % 0 % 0 % 0 m²/s² 0 0 4.26 80
21:00 131 J/kg 1.2 K 0 % 0 % 0 % 0 m²/s² 0 0 5.25 80
22:00 217 J/kg 1.3 K 0 % 0 % 0 % 0 m²/s² 0 0 3.73 80
23:00 128 J/kg 2.5 K 0 % 0 % 0 % 0 m²/s² 0 0 7.09 80
 06:01     21:37    Daglengte: 15:36 Donderdag 29 Jul
00:00 135 J/kg 2.9 K 0 % 0 % 0 % 0 m²/s² 0 0 8 80
01:00 212 J/kg 3.0 K 0 % 0 % 0 % 0 m²/s² 0 0 7.83 3
02:00 291 J/kg 3.0 K 0 % 0 % 0 % 0 m²/s² 0 0 7.56 80
03:00 310 J/kg 2.9 K 0 % 0 % 0 % 0 m²/s² 0 0 7.22 80
04:00 362 J/kg 2.8 K 0 % 0 % 0 % 0 m²/s² 0 0 6.7 80
05:00 367 J/kg 3.5 K 0 % 0 % 0 % 0 m²/s² 0 0 6.8 2
06:00 421 J/kg 3.7 K 0 % 0 % 0 % 0 m²/s² 0 0 6.13 2
07:00 372 J/kg 3.4 K 0 % 0 % 0 % 0 m²/s² 0 0 6.04 2
08:00 385 J/kg 2.4 K 0 % 0 % 0 % 0 m²/s² 0 0 5.52 2
09:00 422 J/kg 1.6 K 0 % 0 % 0 % 0 m²/s² 0 0 4.18 2
10:00 312 J/kg 2.0 K 0 % 0 % 0 % 0 m²/s² 0 0 4.49 2
11:00 417 J/kg 1.4 K 0 % 0 % 0 % 0 m²/s² 0 0 2.69 2
12:00 468 J/kg 0.5 K 0 % 0 % 0 % 0 m²/s² 0 0 2.78 2
13:00 504 J/kg -1.2 K 0 % 0 % 0 % 0 m²/s² 0 0 2.58 2
14:00 395 J/kg -1.2 K 0 % 0 % 0 % 0 m²/s² 0 0 2.94 1
Temp Baro Wind Neerslag
  EWN Forecast EWN WRFDA DWD ICON FMI HIRLAM MET Norway GFS
 05:57     21:41    Daglengte: 15:44 Vandaag
17:00 19.3° 1008.8 hPa 3.6 m/s 5.2 mm 18.4° 1008.6 hPa 2.8 m/s 6.0 mm 19.5° 1009.1 hPa 2.5 m/s 5.8 mm 19.8° 1008.3 hPa 4.4 m/s 0.0 mm 20.4° 1008.9 hPa 2.1 m/s
20:00 17.8° 1009.1 hPa 3.5 m/s 5.0 mm 17.3° 1008.9 hPa 3.6 m/s 17.9 mm 17.9° 1009.2 hPa 3.2 m/s 2.4 mm 17.7° 1008.9 hPa 4.6 m/s 0.0 mm 18.8° 1009.1 hPa 3.3 m/s
23:00 16.9° 1010.4 hPa 3.3 m/s 1.6 mm 15.9° 1009.9 hPa 2.6 m/s 17.9 mm 17.0° 1010.7 hPa 2.5 m/s 0.1 mm 17.3° 1009.8 hPa 3.4 m/s 0.0 mm 16.9° 1010.0 hPa 2.6 m/s
 05:58     21:40    Daglengte: 15:42 Morgen
02:00 16.5° 1010.2 hPa 2.8 m/s 0.0 mm 16.3° 1009.3 hPa 2.4 m/s 18.0 mm 16.3° 1010.3 hPa 1.8 m/s 0.0 mm 16.6° 1009.6 hPa 3.4 m/s 0.0 mm 16.5° 1010.6 hPa 2.3 m/s
05:00 16.2° 1009.8 hPa 2.5 m/s 0.0 mm 16.1° 1008.4 hPa 4.3 m/s 18.0 mm 16.5° 1010.2 hPa 2.2 m/s 0.0 mm 15.4° 1009.0 hPa 1.9 m/s 0.0 mm 15.5° 1009.9 hPa 3.1 m/s
08:00 16.4° 1010.0 hPa 3.5 m/s 0.0 mm 16.7° 1008.6 hPa 4.6 m/s 18.0 mm 16.4° 1010.5 hPa 3.3 m/s 0.0 mm 16.6° 1009.0 hPa 2.8 m/s 0.0 mm 16.6° 1009.8 hPa 4.1 m/s
11:00 18.7° 1010.2 hPa 3.9 m/s 0.0 mm 17.3° 1009.1 hPa 7.3 m/s 21.2 mm 19.5° 1010.5 hPa 3.5 m/s 0.0 mm 19.0° 1009.5 hPa 3.0 m/s 0.0 mm 19.7° 1009.7 hPa 5.1 m/s
14:00 19.8° 1009.5 hPa 4.5 m/s 0.0 mm 20.4° 1009.5 hPa 4.4 m/s 29.1 mm 19.9° 1010.5 hPa 4.9 m/s 0.1 mm 20.3° 1008.8 hPa 2.6 m/s 0.0 mm 20.5° 1009.8 hPa 5.3 m/s
17:00 19.8° 1009.0 hPa 3.3 m/s 5.8 mm 19.3° 1008.8 hPa 5.0 m/s 29.1 mm 19.9° 1009.7 hPa 3.1 m/s 0.6 mm 20.7° 1008.0 hPa 1.6 m/s 0.0 mm 21.2° 1009.2 hPa 3.6 m/s
20:00 18.6° 1008.5 hPa 3.1 m/s 8.1 mm 19.0° 1007.8 hPa 4.2 m/s 29.9 mm 18.7° 1009.2 hPa 2.9 m/s 3.8 mm 19.3° 1007.5 hPa 2.6 m/s 0.0 mm 20.1° 1008.5 hPa 2.7 m/s
23:00 17.1° 1008.8 hPa 3.7 m/s 0.0 mm 17.9° 1008.3 hPa 4.0 m/s 30.1 mm 17.0° 1009.1 hPa 2.1 m/s 2.1 mm 17.7° 1008.7 hPa 3.9 m/s 0.0 mm 17.5° 1009.1 hPa 2.9 m/s
 06:00     21:38    Daglengte: 15:38 Woensdag 28 Jul
02:00 16.7° 1008.0 hPa 4.2 m/s 0.0 mm 16.9° 1007.2 hPa 4.2 m/s 30.1 mm 16.7° 1007.8 hPa 3.2 m/s 0.0 mm 16.9° 1008.6 hPa 4.2 m/s 0.0 mm 16.1° 1008.4 hPa 3.8 m/s
05:00 16.3° 1007.0 hPa 4.4 m/s 0.0 mm 16.1° 1006.6 hPa 4.8 m/s 30.1 mm 16.4° 1007.0 hPa 3.0 m/s 0.0 mm 15.6° 1007.8 hPa 4.0 m/s 0.0 mm 15.5° 1007.6 hPa 5.7 m/s
08:00 16.1° 1006.8 hPa 5.1 m/s 0.0 mm 15.4° 1006.6 hPa 6.2 m/s 30.2 mm 16.4° 1005.9 hPa 4.1 m/s 0.0 mm 16.2° 1007.9 hPa 4.6 m/s 0.0 mm 16.0° 1007.9 hPa 6.7 m/s
11:00 17.8° 1006.6 hPa 7.5 m/s 3.7 mm 18.2° 1006.3 hPa 7.7 m/s 30.2 mm 17.9° 1006.6 hPa 6.0 m/s 1.1 mm 16.7° 1007.7 hPa 7.7 m/s
14:00 18.4° 1007.0 hPa 8.8 m/s 7.8 mm 18.5° 1006.9 hPa 9.6 m/s 30.8 mm 18.5° 1007.2 hPa 6.7 m/s 1.4 mm 17.7° 1008.4 hPa 8.3 m/s
17:00 18.9° 1007.5 hPa 9.0 m/s 9.6 mm 19.3° 1007.1 hPa 9.6 m/s 31.1 mm 17.8° 1007.9 hPa 6.8 m/s 1.0 mm 19.4° 1008.3 hPa 8.7 m/s
20:00 17.4° 1007.0 hPa 9.2 m/s 8.8 mm 18.7° 1006.5 hPa 10.5 m/s 31.1 mm 16.9° 1007.1 hPa 5.8 m/s 1.6 mm 18.3° 1007.1 hPa 7.7 m/s
23:00 16.1° 1006.9 hPa 6.9 m/s 9.9 mm 17.7° 1006.1 hPa 8.4 m/s 31.1 mm 15.9° 1007.0 hPa 5.7 m/s 1.5 mm 17.5° 1006.5 hPa 9.0 m/s
 06:01     21:37    Daglengte: 15:36 Donderdag 29 Jul
02:00 15.4° 1005.7 hPa 7.8 m/s 6.0 mm 16.3° 1005.4 hPa 8.6 m/s 31.2 mm 15.4° 1006.8 hPa 5.2 m/s 0.6 mm 15.4° 1006.2 hPa 9.2 m/s
05:00 15.3° 1005.2 hPa 7.7 m/s 9.9 mm 16.3° 1004.6 hPa 9.4 m/s 32.8 mm 15.3° 1007.1 hPa 4.5 m/s 0.4 mm 14.8° 1006.2 hPa 9.3 m/s
08:00 15.6° 1005.8 hPa 8.3 m/s 16.2 mm 16.0° 1004.6 hPa 10.0 m/s 35.4 mm 15.6° 1008.2 hPa 5.0 m/s 0.0 mm 14.8° 1006.3 hPa 9.9 m/s
11:00 17.3° 1008.6 hPa 7.4 m/s 0.0 mm 16.9° 1005.3 hPa 12.7 m/s 36.8 mm 17.5° 1009.4 hPa 6.1 m/s 0.0 mm 17.1° 1008.5 hPa 9.2 m/s
14:00 18.9° 1009.2 hPa 7.5 m/s 0.0 mm 17.2° 1006.2 hPa 11.8 m/s 43.5 mm 19.3° 1009.9 hPa 6.5 m/s 0.0 mm 18.0° 1009.9 hPa 9.8 m/s
17:00 19.1° 1009.7 hPa 9.7 m/s 17.7 mm 19.1° 1009.7 hPa 9.7 m/s 17.7 mm
20:00 17.9° 1009.5 hPa 8.7 m/s 18.1 mm 17.9° 1009.5 hPa 8.7 m/s 18.1 mm
23:00 17.4° 1009.7 hPa 7.5 m/s 18.5 mm 17.4° 1009.7 hPa 7.5 m/s 18.5 mm
 06:03     21:35    Daglengte: 15:32 Vrijdag 30 Jul
02:00 16.8° 1009.9 hPa 6.4 m/s 18.7 mm 16.8° 1009.9 hPa 6.4 m/s 18.7 mm
05:00 15.8° 1009.8 hPa 5.1 m/s 18.8 mm 15.8° 1009.8 hPa 5.1 m/s 18.8 mm
08:00 16.6° 1010.2 hPa 5.0 m/s 18.8 mm 16.6° 1010.2 hPa 5.0 m/s 18.8 mm
11:00 18.3° 1010.4 hPa 6.0 m/s 18.8 mm 18.3° 1010.4 hPa 6.0 m/s 18.8 mm
14:00 19.7° 1009.9 hPa 5.3 m/s 18.8 mm 19.7° 1009.9 hPa 5.3 m/s 18.8 mm
17:00 20.0° 1009.1 hPa 3.7 m/s 18.8 mm 20.0° 1009.1 hPa 3.7 m/s 18.8 mm
20:00 18.7° 1007.7 hPa 1.7 m/s 18.8 mm 18.7° 1007.7 hPa 1.7 m/s 18.8 mm
23:00 15.8° 1007.6 hPa 2.0 m/s 22.0 mm 15.8° 1007.6 hPa 2.0 m/s 22.0 mm
 06:04     21:33    Daglengte: 15:29 Zaterdag 31 Jul
02:00 15.9° 1006.9 hPa 3.0 m/s 22.0 mm 15.9° 1006.9 hPa 3.0 m/s 22.0 mm
05:00 14.6° 1005.6 hPa 3.3 m/s 22.1 mm 14.6° 1005.6 hPa 3.3 m/s 22.1 mm
08:00 14.4° 1004.8 hPa 4.8 m/s 22.1 mm 14.4° 1004.8 hPa 4.8 m/s 22.1 mm
11:00 16.0° 1003.2 hPa 6.6 m/s 22.6 mm 16.0° 1003.2 hPa 6.6 m/s 22.6 mm
14:00 14.8° 1000.9 hPa 5.7 m/s 25.3 mm 14.8° 1000.9 hPa 5.7 m/s 25.3 mm
17:00 17.3° 1002.9 hPa 7.1 m/s 26.8 mm 17.3° 1002.9 hPa 7.1 m/s 26.8 mm
20:00 16.8° 1005.8 hPa 5.3 m/s 27.0 mm 16.8° 1005.8 hPa 5.3 m/s 27.0 mm
23:00 15.4° 1007.1 hPa 4.2 m/s 27.0 mm 15.4° 1007.1 hPa 4.2 m/s 27.0 mm
 06:06     21:32    Daglengte: 15:26 Zondag 01 Aug
02:00 14.8° 1007.0 hPa 2.5 m/s 27.0 mm 14.8° 1007.0 hPa 2.5 m/s 27.0 mm
05:00 15.0° 1006.4 hPa 1.8 m/s 27.1 mm 15.0° 1006.4 hPa 1.8 m/s 27.1 mm
08:00 14.7° 1006.4 hPa 1.7 m/s 28.7 mm 14.7° 1006.4 hPa 1.7 m/s 28.7 mm
11:00 15.4° 1006.8 hPa 1.6 m/s 30.5 mm 15.4° 1006.8 hPa 1.6 m/s 30.5 mm
14:00 16.7° 1007.6 hPa 4.7 m/s 33.0 mm 16.7° 1007.6 hPa 4.7 m/s 33.0 mm
17:00 16.9° 1009.0 hPa 5.5 m/s 34.3 mm 16.9° 1009.0 hPa 5.5 m/s 34.3 mm
20:00 16.1° 1010.2 hPa 5.4 m/s 34.6 mm 16.1° 1010.2 hPa 5.4 m/s 34.6 mm
23:00 14.6° 1011.9 hPa 4.2 m/s 34.6 mm 14.6° 1011.9 hPa 4.2 m/s 34.6 mm
 06:07     21:30    Daglengte: 15:23 Maandag 02 Aug
02:00 14.0° 1012.9 hPa 4.3 m/s 34.7 mm 14.0° 1012.9 hPa 4.3 m/s 34.7 mm
05:00 13.6° 1013.3 hPa 4.4 m/s 34.8 mm 13.6° 1013.3 hPa 4.4 m/s 34.8 mm
08:00 14.8° 1014.2 hPa 4.5 m/s 35.3 mm 14.8° 1014.2 hPa 4.5 m/s 35.3 mm
11:00 16.7° 1015.7 hPa 4.7 m/s 35.6 mm 16.7° 1015.7 hPa 4.7 m/s 35.6 mm
14:00 18.0° 1016.0 hPa 4.4 m/s 35.6 mm 18.0° 1016.0 hPa 4.4 m/s 35.6 mm
20:00 17.0° 1015.4 hPa 2.7 m/s 35.6 mm 17.0° 1015.4 hPa 2.7 m/s 35.6 mm
 06:09     21:28    Daglengte: 15:19 Dinsdag 03 Aug
02:00 14.4° 1015.2 hPa 3.0 m/s 35.6 mm 14.4° 1015.2 hPa 3.0 m/s 35.6 mm
08:00 15.6° 1014.6 hPa 4.1 m/s 35.7 mm 15.6° 1014.6 hPa 4.1 m/s 35.7 mm
14:00 19.6° 1014.8 hPa 6.7 m/s 35.8 mm 19.6° 1014.8 hPa 6.7 m/s 35.8 mm
20:00 18.8° 1013.1 hPa 6.6 m/s 35.8 mm 18.8° 1013.1 hPa 6.6 m/s 35.8 mm
 06:11     21:27    Daglengte: 15:16 Woensdag 04 Aug
02:00 17.3° 1011.5 hPa 6.8 m/s 35.8 mm 17.3° 1011.5 hPa 6.8 m/s 35.8 mm
08:00 17.3° 1009.8 hPa 7.2 m/s 35.8 mm 17.3° 1009.8 hPa 7.2 m/s 35.8 mm
14:00 17.8° 1009.0 hPa 8.6 m/s 37.0 mm 17.8° 1009.0 hPa 8.6 m/s 37.0 mm
20:00 17.9° 1007.8 hPa 8.7 m/s 38.6 mm 17.9° 1007.8 hPa 8.7 m/s 38.6 mm
 06:12     21:25    Daglengte: 15:13 Donderdag 05 Aug
02:00 16.6° 1008.0 hPa 4.8 m/s 39.7 mm 16.6° 1008.0 hPa 4.8 m/s 39.7 mm
08:00 16.5° 1007.1 hPa 5.6 m/s 40.2 mm 16.5° 1007.1 hPa 5.6 m/s 40.2 mm
14:00 19.2° 1009.8 hPa 3.8 m/s 1.2 mm
20:00 17.7° 1008.5 hPa 2.3 m/s 1.2 mm
 06:14     21:23    Daglengte: 15:09 Vrijdag 06 Aug
02:00 15.0° 1007.8 hPa 1.8 m/s 1.1 mm
08:00 15.2° 1007.3 hPa 2.2 m/s 0.4 mm
14:00 18.6° 1007.8 hPa 3.8 m/s 1.6 mm
20:00 17.3° 1007.1 hPa 2.4 m/s 1.5 mm
 06:15     21:21    Daglengte: 15:06 Zaterdag 07 Aug
02:00 14.9° 1007.2 hPa 2.4 m/s 0.9 mm
08:00 15.2° 1007.2 hPa 3.0 m/s 0.7 mm
14:00 18.5° 1008.0 hPa 5.1 m/s 1.5 mm
20:00 17.0° 1008.6 hPa 4.3 m/s 1.5 mm
 06:17     21:19    Daglengte: 15:02 Zondag 08 Aug
02:00 14.8° 1009.4 hPa 3.2 m/s 0.8 mm
08:00 15.1° 1009.2 hPa 3.6 m/s 1.7 mm
14:00 18.0° 1010.5 hPa 5.4 m/s 2.1 mm
20:00 16.9° 1011.1 hPa 4.0 m/s 0.4 mm
 06:18     21:17    Daglengte: 14:59 Maandag 09 Aug
02:00 15.0° 1011.9 hPa 3.2 m/s 0.6 mm
08:00 15.2° 1012.2 hPa 3.7 m/s 0.3 mm
14:00 18.2° 1013.6 hPa 5.3 m/s 1.3 mm
20:00 16.9° 1014.0 hPa 3.3 m/s 0.5 mm
 06:20     21:15    Daglengte: 14:55 Dinsdag 10 Aug
02:00 14.6° 1014.7 hPa 2.4 m/s 0.5 mm
08:00 15.0° 1014.8 hPa 2.3 m/s 0.8 mm
14:00 19.1° 1016.0 hPa 4.5 m/s 0.7 mm